Regional Weather Roundup
Issued by NWS Little Rock, AR

Home | Current Version | Previous Version | Graphics & Text | Print | Product List | Glossary On
Versions: 1 2 3 4 5 6 7 8 9 10 11 12 13 14 15 16 17 18 19 20 21 22 23 24 25 26 27 28 29 30 31 32 33 34 35 36 37 38 39 40 41 42 43 44 45 46 47 48 49 50
000
ASUS44 KLZK 260505
RWRLZK

WEATHER ROUNDUP FOR ARKANSAS
NATIONAL WEATHER SERVICE LITTLE ROCK AR
1200 AM CDT THU MAR 26 2015

NOTE: "FAIR" INDICATES FEW OR NO CLOUDS BELOW 12,000 FEET WITH NO
SIGNIFICANT WEATHER AND/OR OBSTRUCTIONS TO VISIBILITY.

ARZ001-003-010-029-260600-
NORTHWEST ARKANSAS

CITY           SKY/WX    TMP DP  RH WIND       PRES   REMARKS
FAYETTEVILLE   LGT RAIN  53  53 100 CALM      29.91F
FORT SMITH     RAIN      59  53  80 E3        29.92R
HARRISON       TSTM      52  52 100 N3        29.95F FOG
BENTONVILLE    CLOUDY    54  48  82 E7        29.92R
ROGERS         LGT RAIN  52  51  97 S12       29.92S
SILOAM SPGS    CLOUDY    54  46  76 NE7       29.91R
HIGHFILL       LGT RAIN  53  52  96 VRB6      29.90S
$$

ARZ004-005-016-260600-
NORTH CENTRAL ARKANSAS

CITY           SKY/WX    TMP DP  RH WIND       PRES   REMARKS
BATESVILLE     MOCLDY    63  55  77 N5        29.91R
FLIPPIN        MOCLDY    55  52  88 CALM      29.95R
MTN HOME       RAIN      54  54 100 W6        29.95R FOG
$$

ARZ040-041-260600-
WEST CENTRAL ARKANSAS

CITY           SKY/WX    TMP DP  RH WIND       PRES   REMARKS
MENA           FAIR      72  57  60 NW7       29.89R
MOUNT IDA      FAIR      71  55  56 N7        29.85R
$$

ARZ009-017-025-026-028-260600-
NORTHEAST ARKANSAS

CITY           SKY/WX    TMP DP  RH WIND       PRES   REMARKS
CORNING          N/A     57  57 100 NE15      29.89F
JONESBORO      MOCLDY    64  59  83 S7        29.87F
NEWPORT        MOCLDY    64  60  87 S3        29.89R
BLYTHEVILLE    CLOUDY    64  58  80 N5        29.90R
$$

ARZ022-023-033-042-044-260600-
CENTRAL ARKANSAS

CITY           SKY/WX    TMP DP  RH WIND       PRES   REMARKS
LITTLE ROCK    MOCLDY    69  53  56 S13G23    29.82F
N LITTLE ROCK  MOCLDY    67  57  69 S9G18     29.82F
JACKSONVILLE   MOCLDY    67  55  64 S8        29.83F
SEARCY         FAIR      65  57  75 NW5       29.89R
HOT SPRINGS    FAIR      71  53  52 S14G24    29.82F
RUSSELLVILLE     N/A    N/A N/A N/A MISG      29.90R THUNDER
CLINTON        LGT RAIN  63  55  77 NW6       29.93R
$$

ARZ036-260600-
EAST ARKANSAS

CITY           SKY/WX    TMP DP  RH WIND       PRES   REMARKS
WEST MEMPHIS   FAIR      63  56  78 SW6       29.86F
$$

ARZ050-053-066-070-073-260600-
SOUTHWEST ARKANSAS

CITY           SKY/WX    TMP DP  RH WIND       PRES   REMARKS
ARKADELPHIA    FAIR      62  61  97 CALM      29.85S
CAMDEN         FAIR      66  54  63 MISG      29.85F
TEXARKANA      FAIR      70  56  61 S12       29.84S
EL DORADO      FAIR      66  55  67 S9        29.87F
$$

ARZ056-057-069-260600-
SOUTHEAST ARKANSAS

CITY           SKY/WX    TMP DP  RH WIND       PRES   REMARKS
PINE BLUFF     FAIR      67  55  65 S15       29.85F
STUTTGART      FAIR      68  54  60 S16       29.85F
MONTICELLO     FAIR      66  54  65 S9        29.88F

$$




USA.gov is the U.S. government's official web portal to all federal, state and local government web resources and services.